Hourly Data Report for February 03, 2020

All times are specified in Local Standard Time (LST). Add 1 hour to adjust for Daylight Saving Time where and when it is observed.

OTTAWA INTL A
ONTARIO
Current Station Operator: NAVCAN

45°19'00.000" N
75°40'00.000" W
114.90 m
6106001
71628
YOW

Download Data

Hourly Data (February 2020)
Hourly Data Report for February 3, 2020
TIME Temp Definition
°C
Dew Point Definition
°C
Rel Hum Definition
%
Wind Dir Definition
10's deg

Wind Spd Definition
km/h
Visibility Definition
km
Stn Press Definition
kPa
Hmdx Definition


Wind Chill Definition


Weather Definition


00:00 -4.6 -5.2 95 5 5 2.4 98.61   -7 Fog
01:00 -4.3 -4.9 96 8 4 2.4 98.65   -6 Fog
02:00 -4.5 -5.1 96 36 1 2.4 98.70   -5 Fog
03:00 -4.1 -4.7 96 36 1 1.6 98.77   -5 Fog
04:00 -4.4 -5.1 95 20 4 2.4 98.80   -6 Fog
05:00 -4.3 -4.9 96 21 9 3.2 98.89   -8 Fog
06:00 -3.9 -4.5 96 20 9 4.8 98.94   -8 Fog
07:00 -3.8 -4.4 96 24 7 4.8 99.04   -7 Fog
08:00 -3.3 -3.8 96 20 5 6.4 99.02   -5 Fog
09:00 -1.7 -2.1 97 22 13 9.7 99.16   -6 Fog
10:00 -0.2 -0.4 98 24 17 16.1 99.24   -5 Mostly Cloudy
11:00 1.3 0.4 94 24 20 16.1 99.27     LegendNANA
12:00 2.3 -0.3 83 23 20 16.1 99.20     LegendNANA
13:00 2.9 -1.4 73 25 22 24.1 99.23     Mostly Cloudy
14:00 3.1 -2.5 67 26 23 24.1 99.29     LegendNANA
15:00 3.3 -2.7 65 26 26 24.1 99.39     LegendNANA
16:00 2.8 -2.6 68 29 22 24.1 99.52     Clear
17:00 1.9 -3.2 69 29 16 24.1 99.60     LegendNANA
18:00 0.9 -4.3 68 30 7 24.1 99.69     LegendNANA
19:00 -2.6 -6.1 77 7 3 24.1 99.68   -4 Mainly Clear
20:00 -1.1 -3.8 82 18 5 24.1 99.79   -3 LegendNANA
21:00 -2.3 -4.9 83 13 5 24.1 99.76   -4 LegendNANA
22:00 -3.0 -5.2 85 17 4 24.1 99.76   -5 Mostly Cloudy
23:00 -2.3 -3.8 89 12 7 24.1 99.71   -5 LegendNANA

Notes on Data Quality.

Legend

  • E = Estimated
  • M = Missing
  • NA = Not Available*
  • [empty] = Indicates an unobserved value
Date modified: